Location: Brantley
(31.5822°N, 86.2569°W)
Time: 20:31:13
(UTC+00:00)

Injun/Solrad 3 - Pass Details

Date: 21 February 2026
Orbit: 872 x 984 km, 66.8° (Epoch: 8 March)

Event Time Altitude Azimuth Distance (km) Brightness Sun altitude
Rises 14:53:54 0° 181° (S) 3,444 11.3 29.0°
Reaches altitude 10° 14:56:33 10° 173° (S) 2,508 10.9 29.5°
Maximum altitude 15:01:45 36° 108° (ESE) 1,362 10.7 30.4°
Drops below altitude 10° 15:07:01 10° 44° (NE) 2,541 10.4 31.3°
Sets 15:09:42 0° 36° (NE) 3,495 10.9 31.7°
